Location: Lobos
(35.3000°S, 59.0940°W)
Time: 16:34:41
(UTC-03:00)

Envisat - Visible Passes

Search period start: 28 September 2020 00:00
Search period end: 08 October 2020 00:00
Orbit: 764 x 766 km, 98.1° (Epoch: 28 September)

Date Brightness Start Highest point End Pass type
(mag) Time Alt. Az. Time Alt. Az. Time Alt. Az.
28 Sep 4.4 05:42:03 10° NE 05:46:51 43° ESE 05:51:41 10° S visible
28 Sep 4.5 19:32:58 10° S 19:37:48 42° WSW 19:42:35 10° NW visible
29 Sep 5.9 05:06:49 10° ENE 05:10:22 19° ESE 05:13:56 10° SSE visible
29 Sep 6.5 20:38:29 10° SW 20:39:22 10° WSW 20:40:15 10° WSW visible
30 Sep 3.3 06:07:05 10° NNE 06:12:11 78° ESE 06:17:20 10° S visible
30 Sep 5.6 19:58:59 10° SSW 20:03:02 24° WSW 20:07:04 10° WNW visible
01 Oct 5.0 05:31:01 10° NE 05:35:33 33° ESE 05:40:09 10° S visible
01 Oct 4.0 19:21:29 10° S 19:26:30 54° WSW 19:31:27 10° NNW visible
02 Oct 6.2 04:56:17 10° E 04:59:08 15° ESE 05:02:00 10° SSE visible
02 Oct 6.3 20:25:42 10° SW 20:28:10 14° WSW 20:30:37 10° W visible
03 Oct 3.7 05:55:50 10° NNE 06:00:51 60° ESE 06:05:56 10° S visible
03 Oct 5.2 19:47:19 10° S 19:51:46 30° WSW 19:56:11 10° NW visible
04 Oct 5.4 05:20:05 10° NE 05:24:17 26° ESE 05:28:31 10° SSE visible
05 Oct 6.4 04:46:10 10° E 04:47:55 12° ESE 04:49:41 10° SE visible
05 Oct 6.1 20:13:39 10° SSW 20:16:57 17° WSW 20:20:13 10° WNW visible
06 Oct 4.3 05:44:40 10° NE 05:49:32 47° ESE 05:54:27 10° S visible
06 Oct 4.7 19:35:45 10° S 19:40:29 38° WSW 19:45:11 10° NW visible
07 Oct 5.8 05:09:17 10° ENE 05:13:02 21° ESE 05:16:48 10° SSE visible
